User: anonymous   Login
Location: Sandbanks Provincial Park
(47.6073°N, 57.6428°W)
Time: 15:46:36
(UTC-02:-30)
Language:

Cosmos 2034 Rocket - Orbit

View from above orbital plane
View from above orbital plane
View from above satellite
View from above satellite

Ground track
Ground track

The orbit data is extracted from the following two-line orbital elements,

1 20150U 89059B   15148.96626873  .00000007  00000-0 -84197-5 0  9997
2 20150 082.9386 290.6301 0028226 215.1667 267.1441 13.75598545297246
Epoch (UTC): 28 May 2015 23:11:25
Eccentricity: 0.0028226
inclination: 82.9386°
perigee height: 959 km
apogee height: 1000 km
right ascension of ascending node: 290.6301°
argument of perigee: 215.1667°
revolutions per day: 13.75598545
mean anomaly at epoch: 267.1441°
orbit number at epoch: 29724

The dashed part of the orbit path shows where the satellite is in the earth's shadow,  

DLR